Regional Weather Roundup
Issued by NWS

Home | Current Version | Previous Version | Graphics & Text | Print | Product List | Glossary On
Versions: 1 2 3 4 5 6 7 8 9 10 11 12 13 14 15 16 17 18 19 20 21 22 23 24 25 26 27 28 29 30 31 32 33 34 35 36 37 38 39 40 41 42 43 44 45 46 47 48 49 50
000
ASUS43 KMKX 292100
RWRWI

WISCONSIN REGIONAL WEATHER ROUNDUP
NATIONAL WEATHER SERVICE MILWAUKEE/SULLIVAN WI
400 PM CDT TUE JUL 29 2014

NOTE: "FAIR" INDICATES FEW OR NO CLOUDS BELOW 12,000 FEET WITH NO
SIGNIFICANT WEATHER AND/OR OBSTRUCTIONS TO VISIBILITY.

WIZ001-002-006>008-014>016-023>028-292200-
NORTHWEST WISCONSIN

CITY           SKY/WX    TMP DP  RH WIND       PRES   REMARKS
SUPERIOR ARPT  MOSUNNY   79  56  45 NW17      29.99F HX  80
ASHLAND        LGT RAIN  63  60  90 NE5       30.02R
HAYWARD        SUNNY     76  53  44 VRB5G16   30.02F
SIREN          SUNNY     78  52  39 NW13G23   30.04F
RICE LAKE      PTSUNNY   66  55  66 NW6       30.07F
LADYSMITH      MOSUNNY   70  62  78 CALM      30.04F
EAU CLAIRE     NOT AVBL
MENOMONIE      MOCLDY    78  54  42 NW10      30.04F
NEW RICHMOND   MOSUNNY   78  55  43 W8G17     30.05F
OSCEOLA        SUNNY     79  56  44 W10       30.08F
$$

WIZ003>005-009-010-017-018-292200-
NORTH CENTRAL WISCONSIN

CITY           SKY/WX    TMP DP  RH WIND       PRES   REMARKS
WOODRUFF       MOSUNNY   73  56  56 NW7       30.00S
RHINELANDER    MOSUNNY   72  55  55 NW9       30.01R
EAGLE RIVER    MOSUNNY   66  57  71 NW6       30.00S
LAND O LAKES   PTSUNNY   70  53  54 N10       30.01S
PHILLIPS       CLOUDY    64  53  67 N3        30.02R THUNDER
TOMAHAWK       HVY RAIN  63  54  72 SW7G18    30.05R
MEDFORD        TSTM      58  54  84 NW12G17   30.04R
MERRILL        PTSUNNY   73  56  54 W13       29.99F
$$

WIZ029-030-035-036-043>047-292200-
CENTRAL WISCONSIN

CITY           SKY/WX    TMP DP  RH WIND       PRES   REMARKS
WAUSAU         MOSUNNY   77  53  43 W13       29.97F
MOSINEE        NOT AVBL
MARSHFIELD     SUNNY     78  55  44 NW12      30.01F
STEVENS POINT  MOSUNNY   74  52  45 NW10      30.00F
WAUPACA        MOSUNNY   81  51  35 NW10G18   29.98F HX  80
WAUTOMA        NOT AVBL
WISC RAPIDS    MOSUNNY   80  53  39 NW10G18   30.01F HX  80
CAMP DOUGLAS   NOT AVBL
$$

WIZ011>013-019>022-031-037>040-048>050-292200-
NORTHEAST WISCONSIN

CITY           SKY/WX    TMP DP  RH WIND       PRES   REMARKS
ANTIGO         PTSUNNY   74  56  52 W14G22    29.99S
STURGEON BAY   MOSUNNY   70  55  60 N6        29.97S
GREEN BAY      TSTM      65  59  81 SE3       29.97F
MANITOWOC      NOT AVBL
APPLETON       PTSUNNY   75  52  43 MISG      29.97F
CLINTONVILLE   MOSUNNY   79  50  36 NW15G21   29.96F
OSHKOSH        MOSUNNY   78  56  46 W10       29.97F
$$

WIZ032>034-041-042-053>061-292200-
SOUTHWEST WISCONSIN

CITY           SKY/WX    TMP DP  RH WIND       PRES   REMARKS
LA CROSSE      MOSUNNY   82  55  39 W13       30.03F HX  81
SPARTA         MOSUNNY   77  53  43 W12       30.04F
VIROQUA        FAIR      77  55  46 NW10      30.06F
BOSCOBEL       MOSUNNY   83  56  39 W9        30.04F HX  82
PRAIRIE DU CHI SUNNY     80  49  34 NW9       30.05F
PLATTEVILLE    FAIR      79  53  40 NW8       30.07F
$$

WIZ056-057-062-063-064-067-068-292200-
SOUTH CENTRAL WISCONSIN

CITY           SKY/WX    TMP DP  RH WIND       PRES   REMARKS
BARABOO/DELLS  MOSUNNY   77  50  38 NW7       30.03F
LONE ROCK      NOT AVBL
WATERTOWN      MOSUNNY   77  55  45 W10       30.01F
MADISON        MOSUNNY   79  53  40 NW8       30.02F
MIDDLETON      FAIR      80  50  35 NW10G17   30.03F
MONROE         MOSUNNY   77  54  44 NW8G16    30.04F
JANESVILLE     NOT AVBL
$$

WIZ051-052-058>065-066-070>072-292200-
SOUTHEAST WISCONSIN

CITY           SKY/WX    TMP DP  RH WIND       PRES   REMARKS
MILWAUKEE      PTSUNNY   77  52  41 NW10      29.99F
WAUKESHA       PTSUNNY   75  52  43 W12G22    30.02F
MILWAUKEE/TIMM PTSUNNY   77  52  41 W13       30.00F
RACINE         PTSUNNY   73  59  61 SE9       30.02S
BURLINGTON     MOSUNNY   76  53  45 NW13      30.02S
KENOSHA        MOSUNNY   78  55  44 NW13      30.01F
FOND DU LAC    MOSUNNY   76  53  44 NW13      29.98F
SHEBOYGAN      SUNNY     76  55  48 NW13      29.98F
WEST BEND      MOSUNNY   75  50  41 W12G20    30.00S
JUNEAU         PTSUNNY   76  46  33 NW7       30.02F
$$

LSZ147-162-292200-
LAKE SUPERIOR

STATION/POSITION TIME  TEMP    WIND        PRES    WAVE
                       AIR SEA DIR/SP/G            HT/PER
                 (UTC) (F)     (DEG/KT/KT) (MB)    (FT/S)
W MID LAKE BUOY  1950   51 44  230/  8/ 10 1015.8F   1
PORT WING        2000   69     350/ 15/ 25 1016.3R
SAXON HARBOR     2040          210/  4/  7 1016.3F
$$

LMZ867-665-643>646-292200-
LAKE MICHIGAN

STATION/POSITION TIME  TEMP    WIND        PRES    WAVE
                       AIR SEA DIR/SP/G            HT/PER
                 (UTC) (F)     (DEG/KT/KT) (MB)    (FT/S)
N MID LAKE BUOY  1950   58 56  240/  4/  6 1014.5R   1
NORTHPORT PIER   2000   65     180/  4/  6 1014.6F
SISTER BAY       2010   68        CALM       N/A
ALGOMA LAKESHORE 1951          230/  9/ 10   N/A
KEWAUNEE LAKESHO 2000   59     150/  5/  8 1015.8F
SHEBOYGAN LAKESH 2000   75     290/ 13/ 16 1015.1F
PORT WASHINGTON  2040   79     280/  9/ 13 1015.6F
ATWATER BUOY     2000   65     120/  8     1016.8F
MILWAUKEE LAKESH 2000   65     130/ 10/ 12   N/A
S MID LAKE BUOY  1950   65 64     CALM     1016.6S   1
KENOSHA   LAKESH 2000   66     150/  7/ 10 1016.3R
$$

TC  - TEMPERATURE IN CELSIUS
VSB - VISIBILITY IN STATUTE MILES
WCI - WIND CHILL INDEX
HX  - HEAT INDEX




USA.gov is the U.S. government's official web portal to all federal, state and local government web resources and services.